FENGYUN 1C DEB, 37908

Orbit data source: Space-Track

FENGYUN 1C DEB, 37908 is space debris in SSO originally from a launch on Mon, 10 May 1999 UTC launched from the Taiyaun Space Center, China (TSC). Fengyun 1C debris stems from the Chinese weather satellite Fengyun-1C, which was intentionally destroyed by a Chinese anti-satellite missile in 2007. This event dramatically increased the amount of space debris, with thousands of trackable fragments posing hazards to satellites and human spaceflight. The Fengyun 1C debris cloud has become a focal point in discussions about space sustainability and the need for international regulations to prevent the creation of new debris.

Loading next visibility...
Identifier
37908, 1999-025ENH
Orbit
SSO
Country
Flag of CNCN / PRC
Related business
Manufacturer
Unknown
Mission
Spacecraft
Bus & Motor
Unknown
Mass
Unknown
Launch date (UTC)
1999-05-10 (27 years ago)
Launch vehicle
Unknown
Launch site
Taiyaun Space Center, China (TSC)
Object type
Payload
Rocket body
Debris
Shape & HBR
Unknown shape, 0.1 m
Radar Cross Section
Small (<0.1 m²)

Expand to show TLE details & history
Last TLE update: 6 days ago

TLE from 6 days ago
0 FENGYUN 1C DEB
1 37908U 99025ENH 26201.36683727  .00000558  00000-0  19838-3 0  9995
2 37908  99.1281 251.7463 0072702 235.1352 124.2982 14.37199764672156
Epoch: 2026-07-20T08:48Z
TLE epoch observation values (Epoch: 2026-07-20T08:48:14.740Z)
Latitude
-0.00006°
Longitude
-178.46701°
Altitude
800.227 km
Speed
7.438 km/s
True Right ascension
16h 46m 59s
True Declination
0° 00' 00"
Sunlit
Object was in full shadow at epoch
Visualization orbit readout
Latitude
Unknown
Longitude
Unknown
Altitude
Unknown
Speed
Unknown
Apparent Right ascension
Unknown
Apparent Declination
Unknown
Sunlit
N/A
Visualization observer readout
Local Sidereal Time
19:27:35
Azimuth
Unknown
Elevation
Unknown
Doppler factor
Unknown
Orbital elements
Apogee altitude
816.853 km
Perigee altitude
712.99 km
Semi-major axis
7,143.059 km
Eccentricity
0.00727
Inclination
99.1281°
RAAN
251.7463°
Arg. of periapsis
235.1352°
True anomaly
124.98292°
Mean anomaly
124.2982°
Eccentric anomaly
124.64091°
Mean motion
3.59515 °/min
Orbital period
100.13 mins
BSTAR
0.00019838
Loading maneuver chart data...
Computing Atmospheric mass density...

Documentation

Showing up to 5 results
|